EST,Max TemperatureF,Mean TemperatureF,Min TemperatureF,Max Dew PointF,MeanDew PointF,Min DewpointF,Max Humidity, Mean Humidity, Min Humidity, Max Sea Level PressureIn, Mean Sea Level PressureIn, Min Sea Level PressureIn, Max VisibilityMiles, Mean VisibilityMiles, Min VisibilityMiles, Max Wind SpeedMPH, Mean Wind SpeedMPH, Max Gust SpeedMPH,PrecipitationIn, CloudCover, Events, WindDirDegrees
2010-11-1,37,34,30,31,28,24,85,78,70,30.35,30.23,30.04,10,9,2,8,5,16,0.01,8,Snow,311
2010-11-2,39,29,19,25,22,18,92,67,51,30.43,30.39,30.35,10,10,10,10,6,18,0.00,4,,335
2010-11-3,48,30,15,26,20,11,96,77,41,30.36,30.19,30.02,10,10,10,8,1,,0.00,0,,172
2010-11-4,41,29,19,38,31,18,96,92,86,30.00,29.79,29.50,10,7,2,14,2,,0.55,6,Rain-Snow,18
2010-11-5,50,42,35,46,38,34,100,92,76,29.77,29.46,29.31,10,7,2,7,2,,0.12,7,Rain,288
2010-11-6,39,36,34,35,31,28,97,82,68,30.30,30.08,29.80,10,10,10,8,3,,0.00,7,Rain,320
2010-11-7,35,32,30,28,26,24,80,75,72,30.33,30.23,29.98,10,10,10,9,6,,0.00,6,,329
2010-11-8,42,38,33,39,36,27,93,90,75,29.91,29.68,29.61,10,5,2,14,5,25,0.67,8,Rain,343
2010-11-9,48,42,37,45,40,36,100,90,81,30.09,29.93,29.83,10,8,2,12,2,22,0.05,8,Rain,1
2010-11-10,52,38,25,36,28,22,92,67,31,30.41,30.23,30.05,10,10,9,12,6,16,0.01,2,,3
2010-11-11,53,36,18,26,20,7,96,71,16,30.58,30.52,30.42,10,10,10,8,1,,0.00,0,,333
2010-11-12,60,38,17,29,20,3,96,70,10,30.57,30.49,30.40,10,10,10,4,0,,0.00,0,,0
2010-11-13,61,40,19,29,22,14,96,70,16,30.38,30.26,30.17,10,10,10,4,0,,0.00,0,,310
2010-11-14,52,36,19,33,27,16,92,70,43,30.25,30.16,30.09,10,10,10,10,3,17,0.00,0,,151
2010-11-15,48,38,28,38,34,28,96,85,68,30.10,30.07,30.02,10,9,5,7,2,,0.00,5,,163
2010-11-16,53,45,37,43,38,33,96,83,49,30.11,30.05,29.98,10,9,5,5,0,,0.03,6,Rain,117
2010-11-17,51,45,37,48,42,31,100,86,74,29.96,29.50,29.32,10,7,1,13,5,32,0.51,8,Rain,223
2010-11-18,39,36,33,31,27,23,79,67,53,29.99,29.79,29.54,10,10,9,20,12,37,0.00,8,Rain,288
2010-11-19,32,24,16,28,23,12,93,80,51,30.21,30.07,29.97,10,6,0,10,4,18,0.07,7,Fog-Snow,327
2010-11-20,39,30,21,32,22,11,92,70,47,30.30,29.95,29.78,10,8,1,18,5,30,0.02,7,Rain-Snow,311
2010-11-21,28,22,17,17,12,9,88,63,43,30.57,30.49,30.32,10,10,10,13,6,22,0.00,3,,333
2010-11-22,34,29,24,34,30,17,100,91,75,30.47,30.19,30.04,10,6,2,5,1,,0.05,8,Rain,345
2010-11-23,46,40,33,43,37,25,100,92,55,30.06,29.78,29.64,10,4,0,14,1,29,0.11,7,Fog-Rain,306
2010-11-24,39,32,23,26,16,3,74,57,36,30.14,29.95,29.78,10,8,1,16,11,31,0.00,6,Snow,299
2010-11-25,28,20,12,17,12,5,88,68,48,30.17,30.10,29.90,10,10,10,12,5,18,0.00,1,,320
2010-11-26,37,28,19,34,26,17,100,84,59,29.86,29.52,29.39,10,8,1,12,4,24,0.19,6,Rain-Snow,314
2010-11-27,33,26,19,25,19,9,92,72,56,29.95,29.57,29.42,10,8,0,17,5,26,0.02,6,Fog-Snow,252
2010-11-28,32,26,19,22,18,10,75,68,61,30.39,30.20,29.91,10,10,10,7,4,,0.00,7,,321
2010-11-29,41,31,19,26,22,18,92,72,49,30.55,30.50,30.40,10,10,8,6,2,,0.00,3,,340
2010-11-30,39,26,12,36,26,10,93,83,65,30.53,30.43,30.28,10,10,8,15,3,22,0.08,4,Rain,139